Vertical_Velocity
2 -2 2 -1 1 1 -2 -4 -7 -13 -12 -1 4 -5 -6 -3 -2 -4 -0 3 7 4 4 1 -1 3 5
-7 -6 1 -6 5 1 0 -1 -4 -9 1 -9 -4 5 -8 -5 -6 -5 -3 3 -3 -4 -5 -15 -10 -3 -4
-24 -2 -12 3 -2 -1 -3 -2 -4 1 -11 -13 4 -1 2 -0 -4 2 -0 2 1 -3 2 3 5 1 2
-2 -3 9 -7 4 -1 -10 0 -2 -3 -16 14 -6 -9 -8 -3 -8 -6 -3 -3 -5 -3 -0 1 -4 -4 -1
6 -3 -8 -8 -2 -4 -3 -2 4 -9 -13 -1 -13 -6 -8 -9 -3 1 2 -3 -3 -5 -3 -1 -2 -3 -3
-3 1 -9 -2 -5 1 7 -3 -29 14 -3 -20 7 -4 -4 1 0 -3 -4 -0 2 1 4 3 -3 1 0
2 0 -4 5 9 -3 1 5 -3 -9 3 -18 2 -12 1 -7 2 -0 1 4 1 -2 -5 -4 -6 -2 -2
2 -1 10 3 9 9 1 -1 -5 -4 9 -11 3 -10 -6 -5 -2 -1 -0 1 -1 -2 -4 -4 -2 -0 -4
-1 -4 -0 2 6 4 -1 4 -13 -12 -0 6 -3 -10 0 -15 -7 -0 1 -3 -1 -3 -4 -0 2 2 -3
-5 -3 2 -3 2 9 1 3 5 -18 6 11 -1 12 -14 -8 -4 2 -5 2 1 1 1 3 4 6 1
-3 -4 -4 -1 0 2 5 10 1 2 2 28 -4 -1 13 -18 -7 2 2 -3 3 -1 2 5 5 11 3
-3 -4 -2 -3 -3 1 3 4 9 11 -4 7 2 11 6 -3 -8 -11 2 -0 3 -5 1 -0 3 4 8
-2 -2 -0 2 2 -2 3 5 2 0 -0 2 5 1 9 1 0 -11 3 -16 3 5 -4 1 7 9 2
-2 -0 0 -3 -3 4 -3 -4 -6 -6 11 6 5 7 -3 6 8 -6 4 15 -7 9 11 2 3 13 2
-2 -2 -2 -1 -2 1 1 -2 6 -6 -14 -6 5 7 4 0 -6 7 -3 1 7 4 -3 -2 3 7 2
1 3 -1 -2 -4 -5 5 3 -2 -3 -3 -2 -8 -18 -10 -11 2 -1 1 1 3 0 1 9 6 4 0
1 -1 -1 3 2 -3 -2 2 -3 -1 5 0 -2 2 -5 -1 -5 15 3 1 -1 -3 1 4 12 8 6
Height
1392 1386 1381 1377 1372 1369 1365 1360 1355 1352 1346 1342 1337 1332 1325 1320 1315 1311 1308 1305 1303 1301 1300 1300 1300 1300 1301
1383 1378 1374 1369 1363 1359 1355 1351 1345 1338 1335 1330 1324 1319 1313 1308 1303 1299 1296 1293 1291 1289 1288 1288 1287 1286 1287
1378 1374 1366 1362 1354 1350 1345 1339 1334 1328 1323 1316 1311 1307 1301 1295 1291 1286 1282 1279 1276 1275 1274 1273 1273 1273 1273
1374 1367 1362 1356 1350 1341 1333 1328 1320 1318 1311 1302 1301 1295 1288 1284 1278 1273 1269 1265 1263 1261 1259 1259 1259 1259 1260
1369 1362 1355 1348 1341 1334 1325 1317 1310 1310 1298 1291 1288 1280 1273 1268 1262 1257 1254 1251 1249 1247 1246 1245 1244 1244 1245
1363 1356 1349 1342 1335 1327 1320 1312 1298 1300 1291 1280 1278 1267 1261 1256 1250 1246 1242 1239 1237 1234 1232 1230 1229 1229 1230
1358 1350 1342 1336 1330 1322 1314 1307 1298 1290 1286 1268 1267 1255 1250 1243 1238 1233 1228 1225 1222 1219 1216 1214 1213 1213 1214
1353 1344 1338 1332 1326 1318 1308 1299 1290 1283 1279 1264 1256 1245 1239 1231 1226 1220 1216 1212 1208 1204 1201 1199 1198 1197 1197
1345 1339 1331 1324 1319 1311 1301 1294 1281 1274 1269 1260 1247 1238 1229 1217 1213 1209 1206 1201 1195 1191 1187 1184 1183 1182 1180
1335 1329 1323 1316 1311 1306 1297 1288 1280 1268 1262 1256 1243 1238 1219 1209 1207 1200 1193 1187 1181 1176 1171 1168 1165 1163 1161
1328 1320 1314 1309 1304 1298 1292 1285 1276 1266 1258 1253 1241 1235 1230 1211 1196 1192 1186 1176 1169 1162 1157 1152 1147 1144 1141
1322 1315 1309 1303 1297 1291 1284 1278 1271 1262 1252 1248 1239 1232 1222 1210 1197 1184 1179 1169 1161 1154 1146 1138 1132 1127 1123
1318 1311 1305 1298 1291 1284 1278 1271 1263 1256 1249 1242 1235 1226 1219 1208 1198 1184 1172 1161 1156 1147 1137 1127 1119 1111 1102
1314 1308 1302 1294 1287 1281 1272 1264 1255 1247 1244 1237 1230 1222 1213 1204 1197 1184 1173 1163 1150 1142 1132 1120 1109 1100 1092
1311 1304 1297 1291 1284 1278 1271 1263 1255 1246 1236 1231 1226 1219 1211 1203 1193 1185 1172 1161 1150 1139 1127 1115 1104 1097 1093
1307 1301 1294 1287 1280 1274 1269 1262 1254 1246 1239 1232 1223 1213 1206 1201 1194 1185 1175 1163 1150 1139 1128 1116 1104 1100 1099
1303 1297 1291 1285 1278 1271 1265 1259 1252 1245 1240 1233 1226 1219 1211 1204 1198 1192 1180 1168 1155 1142 1132 1122 1113 1109 1108